FW4110 Weather Reports


time (UTC)temp
F
wind
direction
speed
knots
gust
knots
rain 1hr
in
rain 24hr
in
rain mn
in
humidity
%
barometer
mb
20260505123053 0 0.0 0.0 0.00 0.07 0.06 1011.8
20260505121547 0 0.0 0.0 0.00 0.07 0.06 1012.4
20260505120049 0 0.0 0.0 0.00 0.07 0.06 1011.9
20260505114537 0 0.0 0.0 0.01 0.07 0.06 1011.1
20260505113033 0 0.0 0.0 0.01 0.07 0.06 1010.5
20260505111526 0 0.0 0.0 0.06 0.07 0.06 1010.5
20260505101504 63 9 3.5 16.5 0.00 0.01 0.00 85 1008.6
20260505100057 64 63 5.2 13.0 0.00 0.01 0.00 84 1008.2
20260505094551 66 58 6.1 9.6 0.00 0.01 0.00 83 1008.1
20260505093048 66 186 0.0 0.0 0.00 0.01 0.00 84 1007.5
20260505091550 66 186 0.0 0.0 0.00 0.01 0.00 83 1007.3
20260505090047 67 186 0.0 0.0 0.00 0.01 0.00 82 1007.5
20260505084544 68 187 0.0 1.7 0.00 0.01 0.00 81 1007.4
20260505083033 68 190 0.0 0.0 0.00 0.01 0.00 80 1007.3
20260505081531 68 154 1.7 3.5 0.00 0.01 0.00 79 1007.5
20260505080027 68 179 0.9 3.5 0.00 0.01 0.00 79 1007.6
20260505074525 69 77 3.5 7.0 0.00 0.01 0.00 79 1008.0
20260505073032 69 245 1.7 8.7 0.00 0.01 0.00 79 1007.1
20260505071518 69 289 0.9 7.0 0.00 0.01 0.00 78 1007.3
20260505070026 69 191 0.0 9.6 0.00 0.01 0.00 78 1007.1
20260505064512 70 227 0.9 7.0 0.00 0.01 0.00 77 1006.8
20260505063011 70 239 1.7 11.3 0.00 0.01 0.00 77 1006.9
20260505061506 70 169 3.5 7.8 0.00 0.01 0.00 76 1006.7
20260505060003 70 196 1.7 8.7 0.00 0.01 0.00 76 1006.8
20260505054611 71 268 3.5 9.6 0.00 0.01 0.00 75 1006.7
20260505053100 71 285 2.6 9.6 0.00 0.01 0.00 75 1006.4
20260505051552 71 59 3.5 11.3 0.00 0.01 0.00 74 1006.3
20260505041551 72 177 2.6 12.2 0.00 0.01 0.01 74 1006.4
20260505040048 72 182 1.7 7.0 0.00 0.01 0.01 73 1006.7
20260505034536 72 155 1.7 9.6 0.00 0.01 0.01 73 1006.8
20260505033035 73 203 1.7 7.8 0.00 0.01 0.01 73 1006.7
20260505031540 73 265 0.9 7.0 0.00 0.01 0.01 72 1006.7
20260505030029 73 261 1.7 7.0 0.00 0.01 0.01 72 1006.6
20260505024527 73 154 0.9 5.2 0.00 0.01 0.01 72 1006.2
20260505023025 73 175 0.9 6.1 0.00 0.01 0.01 72 1005.9
20260505021524 73 280 0.0 3.5 0.00 0.01 0.01 71 1005.5
20260505020021 74 216 0.9 5.2 0.00 0.01 0.01 70 1005.3
20260505014526 74 172 0.9 4.3 0.00 0.01 0.01 69 1005.1
20260505013017 75 306 0.9 5.2 0.00 0.01 0.01 68 1005.0
20260505011514 76 216 0.9 6.1 0.00 0.01 0.01 68 1004.8
20260505010012 77 335 0.9 5.2 0.00 0.01 0.01 67 1004.7
20260505004510 77 242 0.9 6.1 0.00 0.01 0.01 67 1004.6
20260505003007 79 200 1.7 7.0 0.00 0.01 0.01 65 1004.3
20260505001505 80 147 2.6 8.7 0.00 0.01 0.01 63 1004.3
20260505000006 80 273 0.9 8.7 0.00 0.01 0.01 63 1004.4
20260504234559 80 258 1.7 10.4 0.00 0.01 0.01 63 1004.3
20260504233108 81 249 2.6 11.3 0.00 0.01 0.01 62 1004.5
20260504231555 81 277 4.3 13.9 0.00 0.01 0.01 61 1004.6
20260504230052 82 216 4.3 14.8 0.00 0.01 0.01 62 1004.7
20260504224556 82 5 3.5 13.0 0.00 0.01 0.01 60 1004.6
20260504223100 83 187 3.5 12.2 0.00 0.01 0.01 59 1004.7
20260504221545 83 269 4.3 12.2 0.00 0.01 0.01 60 1004.9
20260504220043 83 332 2.6 8.7 0.00 0.01 0.01 60 1004.8
20260504214541 83 239 2.6 11.3 0.00 0.01 0.01 60 1004.8
20260504213050 83 231 7.0 13.0 0.00 0.01 0.01 59 1004.8
20260504211535 83 150 4.3 13.0 0.00 0.01 0.01 60 1004.6
20260504210029 82 302 2.6 9.6 0.00 0.01 0.01 63 1004.7
20260504204536 81 151 5.2 13.0 0.00 0.01 0.01 63 1005.0
20260504203023 80 258 3.5 12.2 0.00 0.01 0.01 67 1005.2
20260504201514 78 275 5.2 13.0 0.01 0.01 0.01 69 1005.3
20260504200010 76 227 2.6 7.8 0.01 0.01 0.01 75 1005.3
20260504194507 72 246 1.7 7.0 0.01 0.01 0.01 81 1005.8
20260504193002 70 135 5.2 7.8 0.01 0.01 0.01 80 1005.8
20260504191603 71 284 0.9 3.5 0.00 0.00 0.00 80 1006.9
20260504190057 71 169 0.0 0.9 0.00 0.00 0.00 84 1006.8
20260504184558 73 296 0.0 0.9 0.00 0.00 0.00 78 1007.0
20260504183054 75 296 0.0 0.0 0.00 0.00 0.00 72 1006.9
20260504181554 76 299 0.0 2.6 0.00 0.00 0.00 68 1007.0
20260504180148 76 301 0.9 4.3 0.00 0.00 0.00 66 1006.9
20260504174548 76 183 2.6 6.1 0.00 0.00 0.00 65 1007.0
20260504173043 77 282 2.6 8.7 0.00 0.00 0.00 64 1007.2
20260504171542 76 133 3.5 10.4 0.00 0.00 0.00 67 1007.2